Regional Weather Roundup
Issued by NWS Newport/Morehead, NC

Current Version | Previous Version | Graphics & Text | Print | Product List | Glossary Off
Versions: 1 2 3 4 5 6 7 8 9 10 11 12 13 14 15 16 17 18 19 20 21 22 23 24 25 26 27 28 29 30 31 32 33 34 35 36 37 38 39 40 41 42 43 44 45 46 47 48 49 50

000
ASUS42 KMHX 290525
RWRMHX
WEATHER ROUNDUP FOR EASTERN NORTH CAROLINA
NATIONAL WEATHER SERVICE NEWPORT/MOREHEAD CITY NC
100 AM EDT MON AUG 29 2016

NOTE: "FAIR" INDICATES FEW OR NO CLOUDS BELOW 12,000 FEET
WITH NO SIGNIFICANT WEATHER AND/OR OBSTRUCTIONS TO VISIBILITY

NCZ015>017-031-032-045>047-102-103-290600-
NORTH COAST

CITY           SKY/WX    TMP DP  RH WIND       PRES   REMARKS
EDENTON        CLOUDY   N/A N/A N/A N6        30.13S
ELIZABETH CITY CLOUDY    78  75  90 N8        30.12S
KITTY HAWK     PTCLDY    78  78 100 CALM      30.09S
MANTEO         CLEAR     78  78 100 E7        30.10S

$$

NCZ045>047-081-094-103-104-290600-
CENTRAL COAST

CITY           SKY/WX    TMP DP  RH WIND       PRES   REMARKS
FRISCO         CLOUDY    78  75  90 NE3       30.08S

$$

NCZ095-097-098-100-101-290600-
SOUTHERN COAST

CITY           SKY/WX    TMP DP  RH WIND       PRES   REMARKS
BEAUFORT       CLOUDY    77  77 100 N3        30.09R
CEDAR ISLAND   NOT AVBL
JACKSONVILLE   PTCLDY    76  74  93 N7        30.09S
PINEY ISLAND   NOT AVBL
WILMINGTON     MOCLDY    76  74  93 N5        30.09S


$$

NCZ011>013-027>030-043-044-078>080-089-090>093-098-290600-
COASTAL PLAIN

CITY           SKY/WX    TMP DP  RH WIND       PRES   REMARKS
AHOSKIE        CLOUDY    71  70  95 N6        30.16R
CLINTON        CLEAR     74  74 100 CALM      30.13R
ELIZABETHTOWN  CLEAR     75  75 100 CALM      30.12R
GOLDSBORO      MOCLDY    76  76 100 VRB6      30.12R
GREENVILLE     MOCLDY    73  73 100 N3        30.14S
HAVELOCK       LGT RAIN  79  76  90 N7        30.10S FOG
KENANSVILLE    CLOUDY    75  73  94 CALM      30.13R
KINSTON        PTCLDY    75  74  95 N5        30.13R
NEW BERN       CLOUDY    77  75  93 NE5       30.12R
RICHLANDS      MOCLDY    74  73  97 NE3       30.12R FOG
ROCKY MOUNT    CLOUDY    74  71  91 N5        30.15R
WASHINGTON     PTCLDY    74  73  95 N3        30.12R
WHITEVILLE     CLOUDY    75  73  95 NE6       30.10S FOG

$$

AMZ130-135-150-152-154-156-158-170-250-252-270-ANZ085-086-088-633-658-670-290600-
MARINE OBSERVATIONS

STATION/POSITION TIME  TEMP    WIND        PRES    WAVE   SWELL
                       AIR SEA DIR/SP/G            HT/PER HT/PER
                 (UTC) (F)     (DEG/KT/KT) (MB)    (FT/S) (FT/S)
CHESAPEAKE LIGHT NOT AVBL
64 E VA BEACH    0450   79 81   60/ 12/ 14 1019.0    4/ 8   3/ 8
DUCK             0500   79 78   40/  9/ 10 1018.9
2 E DUCK         0411      79                N/A     4/ 5   2/14
OREGON INLET     0500   79 81   20/  4/  6 1019.0
13E OREGON INLT  0500      81                N/A     4/ 6   3/ 6
HATTERAS CG      0500   81 82   30/  5/  6 1018.3
DIAMOND BUOY     0450   83 84   90/ 12/ 16 1018.2    4/15   3/15
CAPE LOOKOUT     0500   82      60/  8/  9 1018.2
BEAUFORT LAB     0500   79 82   20/  5/  6 1018.2
30 SE NEW RVR IN 0508   81 84  100/  8/ 10 1018.1
30 SE NEW RVR IN 0425      84                N/A     3/ 7
27 SE WRIGHTSVLE 0508   83 83   60/  8/ 12 1018.2
5 SE WRIGHTSVLE  0508   80 83   30/ 14/ 17 1019.2
225 S CAPE HAT   0450   83 84   20/ 10/ 12 1016.3    6/14   7/14
41 SE CHARLESTON 0450   83 85   80/ 10/ 12 1017.2    3/ 8   2/ 8

$$




USA.gov is the U.S. government's official web portal to all federal, state and local government web resources and services.